Weather History for Artesia, NM

Change the Weather History Date:

Thursday, June 13, 2013

  Actual Average Record
Temperature  
Mean Temperature 78 °F -  
Max Temperature 91 °F 92 °F 104 °F (2002)
Min Temperature 66 °F 58 °F 46 °F (1979)
Cooling Degree Days 14    
Growing Degree Days 28 (Base 50)    
Moisture  
Dew Point 58 °F    
Average Humidity 48    
Maximum Humidity 69    
Minimum Humidity 28    
Precipitation  
Precipitation 0.00 in - - ()
Sea Level Pressure  
Sea Level Pressure 30.05 in    
Wind  
Wind Speed 10 mph (SSE)    
Max Wind Speed 25 mph    
Max Gust Speed 33 mph    
Visibility 10 miles    
Events Thunderstorm    
Averages and records for this station are not official NWS values.
T = Trace of Precipitation, MM = Missing Value Source: NWS Daily Summary

Daily Weather History Graph

Daily Weather History Graph

Search for Another Location

Airport:

Trip Planner

Search our weather history database for the weather conditions in past years. The results will help you decide how hot, cold, wet, or windy it might be!

Date:

Astronomy

Jun. 13, 2013 Rise Set
Actual Time 5:49 AM MDT 8:07 PM MDT
Civil Twilight 5:20 AM MDT 8:35 PM MDT
Nautical Twilight 4:45 AM MDT 9:10 PM MDT
Astronomical Twilight 4:07 AM MDT 9:48 PM MDT
Moon 10:16 AM MDT (6/13) 11:28 PM MDT (6/13)
Length of Visible Light 15h 15m
Length of Day
14h 17m
Waxing Crescent, 22% of the Moon is Illuminated
Jun 13
Waxing Crescent
Jun 16
First Quarter
Jun 23
Full
Jun 29
Last Quarter
Jul 8
New

Hourly Weather History & Observations

Time (MDT) Temp. Heat Index Dew Point Humidity Pressure Visibility Wind Dir Wind Speed Gust Speed Precip Events Conditions
12:15 AM 78.8 °F - 57.2 °F 47% 30.07 in 10.0 mi SSE 11.5 mph - N/A   Clear
12:35 AM 77.0 °F - 57.2 °F 50% 30.08 in 10.0 mi SSE 10.4 mph - N/A   Clear
12:55 AM 77.0 °F - 57.2 °F 50% 30.08 in 10.0 mi SSE 10.4 mph - N/A   Clear
1:15 AM 75.2 °F - 57.2 °F 53% 30.07 in 10.0 mi SSE 9.2 mph - N/A   Clear
1:35 AM 75.2 °F - 57.2 °F 53% 30.07 in 10.0 mi SSE 8.1 mph - N/A   Clear
1:55 AM 75.2 °F - 57.2 °F 53% 30.07 in 10.0 mi SSE 8.1 mph - N/A   Clear
2:15 AM 73.4 °F - 57.2 °F 57% 30.07 in 10.0 mi SSE 6.9 mph - N/A   Clear
2:35 AM 73.4 °F - 57.2 °F 57% 30.07 in 10.0 mi SE 5.8 mph - N/A   Clear
2:55 AM 71.6 °F - 57.2 °F 60% 30.07 in 10.0 mi SSE 5.8 mph - N/A   Clear
3:15 AM 71.6 °F - 57.2 °F 60% 30.07 in 10.0 mi South 4.6 mph - N/A   Clear
3:35 AM 68.0 °F - 55.4 °F 64% 30.06 in 10.0 mi South 3.5 mph - N/A   Clear
3:55 AM 68.0 °F - 55.4 °F 64% 30.06 in 10.0 mi South 3.5 mph - N/A   Clear
4:15 AM 68.0 °F - 55.4 °F 64% 30.06 in 10.0 mi SSW 4.6 mph - N/A   Clear
4:35 AM 68.0 °F - 55.4 °F 64% 30.07 in 10.0 mi South 4.6 mph - N/A   Clear
4:55 AM 68.0 °F - 55.4 °F 64% 30.08 in 10.0 mi Calm Calm - N/A   Clear
5:15 AM 68.0 °F - 55.4 °F 64% 30.08 in 10.0 mi Calm Calm - N/A   Clear
5:35 AM 66.2 °F - 55.4 °F 68% 30.09 in 10.0 mi Calm Calm - N/A   Clear
5:55 AM 68.0 °F - 55.4 °F 64% 30.10 in 10.0 mi Calm Calm - N/A   Clear
6:15 AM 68.0 °F - 55.4 °F 64% 30.10 in 10.0 mi Calm Calm - N/A   Clear
6:35 AM 68.0 °F - 57.2 °F 68% 30.10 in 10.0 mi Calm Calm - N/A   Clear
6:55 AM 69.8 °F - 57.2 °F 64% 30.10 in 10.0 mi SSE 4.6 mph - N/A   Clear
7:15 AM 71.6 °F - 59.0 °F 64% 30.11 in 10.0 mi SE 6.9 mph - N/A   Clear
7:35 AM 73.4 °F - 59.0 °F 61% 30.12 in 10.0 mi SSE 9.2 mph - N/A   Clear
7:55 AM 73.4 °F - 62.6 °F 69% 30.12 in 10.0 mi SE 13.8 mph 18.4 mph N/A   Clear
8:15 AM 75.2 °F - 60.8 °F 61% 30.13 in 10.0 mi SE 11.5 mph - N/A   Clear
8:35 AM 75.2 °F - 62.6 °F 65% 30.13 in 10.0 mi South 10.4 mph 17.3 mph N/A   Clear
8:55 AM 77.0 °F - 62.6 °F 61% 30.13 in 10.0 mi SSE 10.4 mph 16.1 mph N/A   Clear
9:15 AM 77.0 °F - 62.6 °F 61% 30.13 in 10.0 mi SE 12.7 mph - N/A   Clear
9:35 AM 78.8 °F - 62.6 °F 57% 30.13 in 10.0 mi SE 12.7 mph - N/A   Scattered Clouds
9:55 AM 77.0 °F - 62.6 °F 61% 30.13 in 10.0 mi SSE 10.4 mph - N/A   Mostly Cloudy
10:15 AM 78.8 °F - 62.6 °F 57% 30.12 in 10.0 mi SE 9.2 mph - N/A   Partly Cloudy
10:35 AM 78.8 °F - 62.6 °F 57% 30.12 in 10.0 mi SE 6.9 mph - N/A   Partly Cloudy
10:55 AM 80.6 °F 81.8 °F 62.6 °F 54% 30.12 in 10.0 mi SSE 10.4 mph - N/A   Mostly Cloudy
11:15 AM 80.6 °F 81.8 °F 62.6 °F 54% 30.12 in 10.0 mi SE 12.7 mph 17.3 mph N/A   Scattered Clouds
11:35 AM 82.4 °F 82.9 °F 60.8 °F 48% 30.12 in 10.0 mi SE 15.0 mph 18.4 mph N/A   Partly Cloudy
11:55 AM 84.2 °F 84.4 °F 60.8 °F 45% 30.11 in 10.0 mi SE 10.4 mph 18.4 mph N/A   Partly Cloudy
12:15 PM 84.2 °F 84.4 °F 60.8 °F 45% 30.10 in 10.0 mi SE 9.2 mph - N/A   Partly Cloudy
12:35 PM 84.2 °F 83.8 °F 59.0 °F 42% 30.10 in 10.0 mi SSE 11.5 mph 19.6 mph N/A   Partly Cloudy
12:55 PM 86.0 °F 85.4 °F 59.0 °F 40% 30.09 in 10.0 mi SE 8.1 mph 24.2 mph N/A   Partly Cloudy
1:15 PM 86.0 °F 85.4 °F 59.0 °F 40% 30.07 in 10.0 mi SSE 13.8 mph 19.6 mph N/A   Clear
1:35 PM 87.8 °F 87.1 °F 59.0 °F 38% 30.06 in 10.0 mi SE 16.1 mph - N/A   Clear
1:55 PM 87.8 °F 87.1 °F 59.0 °F 38% 30.05 in 10.0 mi ESE 10.4 mph 19.6 mph N/A   Clear
2:15 PM 89.6 °F 88.9 °F 59.0 °F 36% 30.03 in 10.0 mi ESE 13.8 mph 18.4 mph N/A   Clear
2:35 PM 89.6 °F 88.1 °F 57.2 °F 33% 30.03 in 10.0 mi SE 11.5 mph 19.6 mph N/A   Partly Cloudy
2:55 PM 89.6 °F 88.1 °F 57.2 °F 33% 30.02 in 10.0 mi SSE 12.7 mph 19.6 mph N/A   Partly Cloudy
3:15 PM 91.4 °F 89.9 °F 57.2 °F 31% 30.01 in 10.0 mi SSE 17.3 mph 21.9 mph N/A   Partly Cloudy
3:35 PM 91.4 °F 89.9 °F 57.2 °F 31% 30.00 in 10.0 mi SE 18.4 mph 25.3 mph N/A   Partly Cloudy
3:55 PM 91.4 °F 89.4 °F 55.4 °F 29% 30.00 in 10.0 mi SSE 15.0 mph 21.9 mph N/A   Partly Cloudy
4:15 PM 91.4 °F 89.4 °F 55.4 °F 29% 29.99 in 10.0 mi SE 11.5 mph 23.0 mph N/A   Partly Cloudy
4:35 PM 91.4 °F 89.4 °F 55.4 °F 29% 29.98 in 10.0 mi SE 17.3 mph 23.0 mph N/A   Partly Cloudy
4:55 PM 91.4 °F 89.4 °F 55.4 °F 29% 29.97 in 10.0 mi ESE 12.7 mph 28.8 mph N/A   Clear
5:15 PM 91.4 °F 89.4 °F 55.4 °F 29% 29.97 in 10.0 mi SSE 13.8 mph 18.4 mph N/A   Partly Cloudy
5:35 PM 91.4 °F 89.1 °F 53.6 °F 28% 29.96 in 10.0 mi SE 16.1 mph 20.7 mph N/A   Scattered Clouds
5:55 PM 91.4 °F 89.1 °F 53.6 °F 28% 29.95 in 10.0 mi ESE 17.3 mph 20.7 mph N/A   Partly Cloudy
6:15 PM 91.4 °F 89.4 °F 55.4 °F 29% 29.95 in 10.0 mi SSE 16.1 mph 24.2 mph N/A   Clear
6:35 PM 89.6 °F 87.3 °F 53.6 °F 29% 29.95 in 10.0 mi SE 13.8 mph - N/A   Clear
6:55 PM 91.4 °F 89.4 °F 55.4 °F 29% 29.96 in 10.0 mi South 20.7 mph 26.5 mph N/A   Partly Cloudy
7:15 PM 89.6 °F 87.7 °F 55.4 °F 31% 29.96 in 10.0 mi SSE 17.3 mph 23.0 mph N/A   Scattered Clouds
7:35 PM 89.6 °F 87.7 °F 55.4 °F 31% 29.97 in 10.0 mi SSE 19.6 mph - N/A   Partly Cloudy
7:55 PM 86.0 °F 84.9 °F 57.2 °F 37% 29.98 in 10.0 mi South 17.3 mph - N/A   Partly Cloudy
8:15 PM 86.0 °F 84.9 °F 57.2 °F 37% 29.99 in 10.0 mi South 18.4 mph 27.6 mph N/A   Partly Cloudy
8:35 PM 84.2 °F 83.5 °F 57.2 °F 40% 30.00 in 10.0 mi South 18.4 mph - N/A   Clear
8:55 PM 84.2 °F 83.5 °F 57.2 °F 40% 30.00 in 10.0 mi South 13.8 mph - N/A   Partly Cloudy
9:15 PM 84.2 °F 83.5 °F 57.2 °F 40% 30.00 in 10.0 mi South 11.5 mph - N/A   Partly Cloudy
9:35 PM 82.4 °F 82.0 °F 57.2 °F 42% 30.00 in 10.0 mi South 12.7 mph - N/A   Clear
9:55 PM 82.4 °F 82.0 °F 57.2 °F 42% 30.01 in 10.0 mi South 12.7 mph - N/A   Clear
10:15 PM 82.4 °F 82.0 °F 57.2 °F 42% 30.02 in 10.0 mi South 11.5 mph - N/A   Clear
10:35 PM 80.6 °F 80.8 °F 57.2 °F 45% 30.03 in 10.0 mi SSE 10.4 mph - N/A   Clear
10:55 PM 80.6 °F 80.8 °F 57.2 °F 45% 30.03 in 10.0 mi South 11.5 mph 17.3 mph N/A   Clear
11:15 PM 78.8 °F - 57.2 °F 47% 30.04 in 10.0 mi South 13.8 mph - N/A Thunderstorm Clear
11:35 PM 78.8 °F - 59.0 °F 51% 30.05 in 10.0 mi SSE 12.7 mph - N/A   Clear
11:55 PM 77.0 °F - 60.8 °F 57% 30.08 in 8.0 mi ESE 25.3 mph 33.4 mph N/A Thunderstorm Thunderstorm